Year,Month,Day,Hour,Minute,Value (Times are PST for temperature in C)
2018,12,12,00,00,4.10
2018,12,12,00,01,4.00
2018,12,12,00,02,4.00
2018,12,12,00,03,3.90
2018,12,12,00,04,3.90
2018,12,12,00,05,3.90
2018,12,12,00,06,3.80
2018,12,12,00,07,3.80
2018,12,12,00,08,3.80
2018,12,12,00,09,3.80
2018,12,12,00,10,3.70
2018,12,12,00,11,3.70
2018,12,12,00,12,3.70
2018,12,12,00,13,3.70
2018,12,12,00,14,3.70
2018,12,12,00,15,3.70
2018,12,12,00,16,3.70
2018,12,12,00,17,3.70
2018,12,12,00,18,3.60
2018,12,12,00,19,3.60
2018,12,12,00,20,3.60
2018,12,12,00,21,3.60
2018,12,12,00,22,3.60
2018,12,12,00,23,3.60
2018,12,12,00,24,3.60
2018,12,12,00,25,3.50
2018,12,12,00,26,3.50
2018,12,12,00,27,3.40
2018,12,12,00,28,3.40
2018,12,12,00,29,3.30
2018,12,12,00,30,3.30
2018,12,12,00,31,3.30
2018,12,12,00,32,3.20
2018,12,12,00,33,3.20
2018,12,12,00,34,3.20
2018,12,12,00,35,3.20
2018,12,12,00,36,3.20
2018,12,12,00,37,3.10
2018,12,12,00,38,3.10
2018,12,12,00,39,3.10
2018,12,12,00,40,3.10
2018,12,12,00,41,3.10
2018,12,12,00,42,3.10
2018,12,12,00,43,3.10
2018,12,12,00,44,3.10
2018,12,12,00,45,3.10
2018,12,12,00,46,3.00
2018,12,12,00,47,3.00
2018,12,12,00,48,3.00
2018,12,12,00,49,3.00
2018,12,12,00,50,3.00
2018,12,12,00,51,3.00
2018,12,12,00,52,3.10
2018,12,12,00,53,3.10
2018,12,12,00,54,3.10
2018,12,12,00,55,3.10
2018,12,12,00,56,3.10
2018,12,12,00,57,3.10
2018,12,12,00,58,3.10
2018,12,12,00,59,3.10
2018,12,12,01,00,3.10
2018,12,12,01,01,3.10
2018,12,12,01,02,3.10
2018,12,12,01,03,3.10
2018,12,12,01,04,3.10
2018,12,12,01,05,3.10
2018,12,12,01,06,3.10
2018,12,12,01,07,3.10
2018,12,12,01,08,3.10
2018,12,12,01,09,3.10
2018,12,12,01,10,3.00
2018,12,12,01,11,3.00
2018,12,12,01,12,3.00
2018,12,12,01,13,3.00
2018,12,12,01,14,3.00
2018,12,12,01,15,3.00
2018,12,12,01,16,3.00
2018,12,12,01,17,3.00
2018,12,12,01,18,3.00
2018,12,12,01,19,3.00
2018,12,12,01,20,3.00
2018,12,12,01,21,3.00
2018,12,12,01,22,3.00
2018,12,12,01,23,2.90
2018,12,12,01,24,2.90
2018,12,12,01,25,2.90
2018,12,12,01,26,2.90
2018,12,12,01,27,2.90
2018,12,12,01,28,2.90
2018,12,12,01,29,2.80
2018,12,12,01,30,2.80
2018,12,12,01,31,2.80
2018,12,12,01,32,2.80
2018,12,12,01,33,2.80
2018,12,12,01,34,2.80
2018,12,12,01,35,2.80
2018,12,12,01,36,2.80
2018,12,12,01,37,2.80
2018,12,12,01,38,2.80
2018,12,12,01,39,2.90
2018,12,12,01,40,2.90
2018,12,12,01,41,2.90
2018,12,12,01,42,2.90
2018,12,12,01,43,2.80
2018,12,12,01,44,2.80
2018,12,12,01,45,2.80
2018,12,12,01,46,2.80
2018,12,12,01,47,2.80
2018,12,12,01,48,2.80
2018,12,12,01,49,2.80
2018,12,12,01,50,2.80
2018,12,12,01,51,2.80
2018,12,12,01,52,2.80
2018,12,12,01,53,2.80
2018,12,12,01,54,2.80
2018,12,12,01,55,2.80
2018,12,12,01,56,2.70
2018,12,12,01,57,2.70
2018,12,12,01,58,2.80
2018,12,12,01,59,2.80
2018,12,12,02,00,2.80
2018,12,12,02,01,2.80
2018,12,12,02,02,2.80
2018,12,12,02,03,2.80
2018,12,12,02,04,2.80
2018,12,12,02,05,2.70
2018,12,12,02,06,2.70
2018,12,12,02,07,2.60
2018,12,12,02,08,2.60
2018,12,12,02,09,2.60
2018,12,12,02,10,2.60
2018,12,12,02,11,2.50
2018,12,12,02,12,2.50
2018,12,12,02,13,2.50
2018,12,12,02,14,2.60
2018,12,12,02,15,2.60
2018,12,12,02,16,2.60
2018,12,12,02,17,2.60
2018,12,12,02,18,2.60
2018,12,12,02,19,2.60
2018,12,12,02,20,2.60
2018,12,12,02,21,2.50
2018,12,12,02,22,2.50
2018,12,12,02,23,2.50
2018,12,12,02,24,2.40
2018,12,12,02,25,2.40
2018,12,12,02,26,2.40
2018,12,12,02,27,2.30
2018,12,12,02,28,2.30
2018,12,12,02,29,2.30
2018,12,12,02,30,2.30
2018,12,12,02,31,2.30
2018,12,12,02,32,2.40
2018,12,12,02,33,2.40
2018,12,12,02,34,2.40
2018,12,12,02,35,2.40
2018,12,12,02,36,2.50
2018,12,12,02,37,2.40
2018,12,12,02,38,2.50
2018,12,12,02,39,2.40
2018,12,12,02,40,2.40
2018,12,12,02,41,2.40
2018,12,12,02,42,2.40
2018,12,12,02,43,2.40
2018,12,12,02,44,2.40
2018,12,12,02,45,2.40
2018,12,12,02,46,2.30
2018,12,12,02,47,2.30
2018,12,12,02,48,2.30
2018,12,12,02,49,2.20
2018,12,12,02,50,2.20
2018,12,12,02,51,2.30
2018,12,12,02,52,2.30
2018,12,12,02,53,2.30
2018,12,12,02,54,2.30
2018,12,12,02,55,2.40
2018,12,12,02,56,2.60
2018,12,12,02,57,2.70
2018,12,12,02,58,2.90
2018,12,12,02,59,3.20
2018,12,12,03,00,3.40
2018,12,12,03,01,3.70
2018,12,12,03,02,3.90
2018,12,12,03,03,4.10
2018,12,12,03,04,4.40
2018,12,12,03,05,4.60
2018,12,12,03,06,4.90
2018,12,12,03,07,5.10
2018,12,12,03,08,5.20
2018,12,12,03,09,5.50
2018,12,12,03,10,5.70
2018,12,12,03,11,5.90
2018,12,12,03,12,6.00
2018,12,12,03,13,6.10
2018,12,12,03,14,6.20
2018,12,12,03,15,6.20
2018,12,12,03,16,6.30
2018,12,12,03,17,6.30
2018,12,12,03,18,6.30
2018,12,12,03,19,6.30
2018,12,12,03,20,6.20
2018,12,12,03,21,6.20
2018,12,12,03,22,6.10
2018,12,12,03,23,6.00
2018,12,12,03,24,6.00
2018,12,12,03,25,5.90
2018,12,12,03,26,5.80
2018,12,12,03,27,5.80
2018,12,12,03,28,5.80
2018,12,12,03,29,5.80
2018,12,12,03,30,5.80
2018,12,12,03,31,5.80
2018,12,12,03,32,5.70
2018,12,12,03,33,5.70
2018,12,12,03,34,5.70
2018,12,12,03,35,5.60
2018,12,12,03,36,5.50
2018,12,12,03,37,5.50
2018,12,12,03,38,5.40
2018,12,12,03,39,5.40
2018,12,12,03,40,5.30
2018,12,12,03,41,5.30
2018,12,12,03,42,5.30
2018,12,12,03,43,5.20
2018,12,12,03,44,5.20
2018,12,12,03,45,5.20
2018,12,12,03,46,5.10
2018,12,12,03,47,5.10
2018,12,12,03,48,5.00
2018,12,12,03,49,5.00
2018,12,12,03,50,4.90
2018,12,12,03,51,4.80
2018,12,12,03,52,4.70
2018,12,12,03,53,4.70
2018,12,12,03,54,4.60
2018,12,12,03,55,4.50
2018,12,12,03,56,4.40
2018,12,12,03,57,4.30
2018,12,12,03,58,4.20
2018,12,12,03,59,4.10
2018,12,12,04,00,4.10
2018,12,12,04,01,4.00
2018,12,12,04,02,3.90
2018,12,12,04,03,3.80
2018,12,12,04,04,3.80
2018,12,12,04,05,3.70
2018,12,12,04,06,3.60
2018,12,12,04,07,3.50
2018,12,12,04,08,3.40
2018,12,12,04,09,3.30
2018,12,12,04,10,3.30
2018,12,12,04,11,3.20
2018,12,12,04,12,3.10
2018,12,12,04,13,3.00
2018,12,12,04,14,2.90
2018,12,12,04,15,2.90
2018,12,12,04,16,2.80
2018,12,12,04,17,2.80
2018,12,12,04,18,2.80
2018,12,12,04,19,2.80
2018,12,12,04,20,2.80
2018,12,12,04,21,2.80
2018,12,12,04,22,2.80
2018,12,12,04,23,2.80
2018,12,12,04,24,2.70
2018,12,12,04,25,2.70
2018,12,12,04,26,2.70
2018,12,12,04,27,2.70
2018,12,12,04,28,2.70
2018,12,12,04,29,2.60
2018,12,12,04,30,2.60
2018,12,12,04,31,2.60
2018,12,12,04,32,2.60
2018,12,12,04,33,2.50
2018,12,12,04,34,2.40
2018,12,12,04,35,2.40
2018,12,12,04,36,2.40
2018,12,12,04,37,2.30
2018,12,12,04,38,2.30
2018,12,12,04,39,2.30
2018,12,12,04,40,2.30
2018,12,12,04,41,2.30
2018,12,12,04,42,2.30
2018,12,12,04,43,2.30
2018,12,12,04,44,2.30
2018,12,12,04,45,2.30
2018,12,12,04,46,2.30
2018,12,12,04,47,2.30
2018,12,12,04,48,2.30
2018,12,12,04,49,2.30
2018,12,12,04,50,2.30
2018,12,12,04,51,2.30
2018,12,12,04,52,2.20
2018,12,12,04,53,2.20
2018,12,12,04,54,2.20
2018,12,12,04,55,2.10
2018,12,12,04,56,2.10
2018,12,12,04,57,2.10
2018,12,12,04,58,2.10
2018,12,12,04,59,2.00
2018,12,12,05,00,2.00
2018,12,12,05,01,2.00
2018,12,12,05,02,2.00
2018,12,12,05,03,1.90
2018,12,12,05,04,1.90
2018,12,12,05,05,1.90
2018,12,12,05,06,1.90
2018,12,12,05,07,1.80
2018,12,12,05,08,1.80
2018,12,12,05,09,1.80
2018,12,12,05,10,1.80
2018,12,12,05,11,1.70
2018,12,12,05,12,1.70
2018,12,12,05,13,1.70
2018,12,12,05,14,1.60
2018,12,12,05,15,1.60
2018,12,12,05,16,1.60
2018,12,12,05,17,1.60
2018,12,12,05,18,1.60
2018,12,12,05,19,1.60
2018,12,12,05,20,1.60
2018,12,12,05,21,1.60
2018,12,12,05,22,1.60
2018,12,12,05,23,1.60
2018,12,12,05,24,1.60
2018,12,12,05,25,1.70
2018,12,12,05,26,1.70
2018,12,12,05,27,1.70
2018,12,12,05,28,1.70
2018,12,12,05,29,1.70
2018,12,12,05,30,1.70
2018,12,12,05,31,1.70
2018,12,12,05,32,1.70
2018,12,12,05,33,1.70
2018,12,12,05,34,1.70
2018,12,12,05,35,1.70
2018,12,12,05,36,1.70
2018,12,12,05,37,1.70
2018,12,12,05,38,1.70
2018,12,12,05,39,1.70
2018,12,12,05,40,1.70
2018,12,12,05,41,1.70
2018,12,12,05,42,1.70
2018,12,12,05,43,1.70
2018,12,12,05,44,1.70
2018,12,12,05,45,1.60
2018,12,12,05,46,1.60
2018,12,12,05,47,1.60
2018,12,12,05,48,1.60
2018,12,12,05,49,1.60
2018,12,12,05,50,1.60
2018,12,12,05,51,1.60
2018,12,12,05,52,1.50
2018,12,12,05,53,1.50
2018,12,12,05,54,1.40
2018,12,12,05,55,1.30
2018,12,12,05,56,1.30
2018,12,12,05,57,1.30
2018,12,12,05,58,1.30
2018,12,12,05,59,1.40
2018,12,12,06,00,1.40
2018,12,12,06,01,1.40
2018,12,12,06,02,1.30
2018,12,12,06,03,1.30
2018,12,12,06,04,1.30
2018,12,12,06,05,1.30
2018,12,12,06,06,1.30
2018,12,12,06,07,1.30
2018,12,12,06,08,1.30
2018,12,12,06,09,1.30
2018,12,12,06,10,1.30
2018,12,12,06,11,1.30
2018,12,12,06,12,1.30
2018,12,12,06,13,1.30
2018,12,12,06,14,1.30
2018,12,12,06,15,1.30
2018,12,12,06,16,1.30
2018,12,12,06,17,1.30
2018,12,12,06,18,1.30
2018,12,12,06,19,1.30
2018,12,12,06,20,1.20
2018,12,12,06,21,1.20
2018,12,12,06,22,1.20
2018,12,12,06,23,1.20
2018,12,12,06,24,1.20
2018,12,12,06,25,1.20
2018,12,12,06,26,1.20
2018,12,12,06,27,1.20
2018,12,12,06,28,1.20
2018,12,12,06,29,1.20
2018,12,12,06,30,1.20
2018,12,12,06,31,1.20
2018,12,12,06,32,1.20
2018,12,12,06,33,1.20
2018,12,12,06,34,1.20
2018,12,12,06,35,1.20
2018,12,12,06,36,1.20
2018,12,12,06,37,1.20
2018,12,12,06,38,1.20
2018,12,12,06,39,1.20
2018,12,12,06,40,1.10
2018,12,12,06,41,1.10
2018,12,12,06,42,1.10
2018,12,12,06,43,1.20
2018,12,12,06,44,1.20
2018,12,12,06,45,1.20
2018,12,12,06,46,1.30
2018,12,12,06,47,1.30
2018,12,12,06,48,1.30
2018,12,12,06,49,1.30
2018,12,12,06,50,1.30
2018,12,12,06,51,1.30
2018,12,12,06,52,1.40
2018,12,12,06,53,1.40
2018,12,12,06,54,1.40
2018,12,12,06,55,1.30
2018,12,12,06,56,1.30
2018,12,12,06,57,1.30
2018,12,12,06,58,1.30
2018,12,12,06,59,1.30
2018,12,12,07,00,1.30
2018,12,12,07,01,1.30
2018,12,12,07,02,1.30
2018,12,12,07,03,1.30
2018,12,12,07,04,1.30
2018,12,12,07,05,1.20
2018,12,12,07,06,1.20
2018,12,12,07,07,1.20
2018,12,12,07,08,1.20
2018,12,12,07,09,1.20
2018,12,12,07,10,1.20
2018,12,12,07,11,1.20
2018,12,12,07,12,1.20
2018,12,12,07,13,1.20
2018,12,12,07,14,1.20
2018,12,12,07,15,1.20
2018,12,12,07,16,1.20
2018,12,12,07,17,1.10
2018,12,12,07,18,1.20
2018,12,12,07,19,1.30
2018,12,12,07,20,1.30
2018,12,12,07,21,1.30
2018,12,12,07,22,1.40
2018,12,12,07,23,1.50
2018,12,12,07,24,1.50
2018,12,12,07,25,1.60
2018,12,12,07,26,1.70
2018,12,12,07,27,1.90
2018,12,12,07,28,2.00
2018,12,12,07,29,2.10
2018,12,12,07,30,2.20
2018,12,12,07,31,2.40
2018,12,12,07,32,2.50
2018,12,12,07,33,2.50
2018,12,12,07,34,2.50
2018,12,12,07,35,2.50
2018,12,12,07,36,2.40
2018,12,12,07,37,2.40
2018,12,12,07,38,2.30
2018,12,12,07,39,2.30
2018,12,12,07,40,2.20
2018,12,12,07,41,2.20
2018,12,12,07,42,2.10
2018,12,12,07,43,2.10
2018,12,12,07,44,2.00
2018,12,12,07,45,2.00
2018,12,12,07,46,2.00
2018,12,12,07,47,2.00
2018,12,12,07,48,2.00
2018,12,12,07,49,2.00
2018,12,12,07,50,2.00
2018,12,12,07,51,2.00
2018,12,12,07,52,2.00
2018,12,12,07,53,2.00
2018,12,12,07,54,2.00
2018,12,12,07,55,1.90
2018,12,12,07,56,1.90
2018,12,12,07,57,1.90
2018,12,12,07,58,1.90
2018,12,12,07,59,1.90
2018,12,12,08,00,1.90
2018,12,12,08,01,1.90
2018,12,12,08,02,1.90
2018,12,12,08,03,2.00
2018,12,12,08,04,2.00
2018,12,12,08,05,2.10
2018,12,12,08,06,2.10
2018,12,12,08,07,2.20
2018,12,12,08,08,2.20
2018,12,12,08,09,2.20
2018,12,12,08,10,2.20
2018,12,12,08,11,2.20
2018,12,12,08,12,2.10
2018,12,12,08,13,2.10
2018,12,12,08,14,2.10
2018,12,12,08,15,2.10
2018,12,12,08,16,2.10
2018,12,12,08,17,2.10
2018,12,12,08,18,2.10
2018,12,12,08,19,2.10
2018,12,12,08,20,2.20
2018,12,12,08,21,2.30
2018,12,12,08,22,2.40
2018,12,12,08,23,2.50
2018,12,12,08,24,2.50
2018,12,12,08,25,2.50
2018,12,12,08,26,2.50
2018,12,12,08,27,2.60
2018,12,12,08,28,2.60
2018,12,12,08,29,2.70
2018,12,12,08,30,2.70
2018,12,12,08,31,2.80
2018,12,12,08,32,2.80
2018,12,12,08,33,2.80
2018,12,12,08,34,2.90
2018,12,12,08,35,2.90
2018,12,12,08,36,3.00
2018,12,12,08,37,3.00
2018,12,12,08,38,3.00
2018,12,12,08,39,3.10
2018,12,12,08,40,3.10
2018,12,12,08,41,3.10
2018,12,12,08,42,3.20
2018,12,12,08,43,3.20
2018,12,12,08,44,3.20
2018,12,12,08,45,3.30
2018,12,12,08,46,3.30
2018,12,12,08,47,3.40
2018,12,12,08,48,3.50
2018,12,12,08,49,3.60
2018,12,12,08,50,3.60
2018,12,12,08,51,3.70
2018,12,12,08,52,3.80
2018,12,12,08,53,3.90
2018,12,12,08,54,4.00
2018,12,12,08,55,4.10
2018,12,12,08,56,4.10
2018,12,12,08,57,4.10
2018,12,12,08,58,4.10
2018,12,12,08,59,4.10
2018,12,12,09,00,4.10
2018,12,12,09,01,4.10
2018,12,12,09,02,4.10
2018,12,12,09,03,4.20
2018,12,12,09,04,4.20
2018,12,12,09,05,4.20
2018,12,12,09,06,4.20
2018,12,12,09,07,4.30
2018,12,12,09,08,4.30
2018,12,12,09,09,4.40
2018,12,12,09,10,4.40
2018,12,12,09,11,4.50
2018,12,12,09,12,4.60
2018,12,12,09,13,4.60
2018,12,12,09,14,4.60
2018,12,12,09,15,4.50
2018,12,12,09,16,4.50
2018,12,12,09,17,4.50
2018,12,12,09,18,4.50
2018,12,12,09,19,4.40
2018,12,12,09,20,4.40
2018,12,12,09,21,4.40
2018,12,12,09,22,4.40
2018,12,12,09,23,4.40
2018,12,12,09,24,4.40
2018,12,12,09,25,4.40
2018,12,12,09,26,4.40
2018,12,12,09,27,4.40
2018,12,12,09,28,4.50
2018,12,12,09,29,4.50
2018,12,12,09,30,4.60
2018,12,12,09,31,4.60
2018,12,12,09,32,4.60
2018,12,12,09,33,4.70
2018,12,12,09,34,4.70
2018,12,12,09,35,4.70
2018,12,12,09,36,4.70
2018,12,12,09,37,4.70
2018,12,12,09,38,4.70
2018,12,12,09,39,4.70
2018,12,12,09,40,4.70
2018,12,12,09,41,4.70
2018,12,12,09,42,4.80
2018,12,12,09,43,4.90
2018,12,12,09,44,5.00
2018,12,12,09,45,5.10
2018,12,12,09,46,5.20
2018,12,12,09,47,5.20
2018,12,12,09,48,5.30
2018,12,12,09,49,5.30
2018,12,12,09,50,5.30
2018,12,12,09,51,5.30
2018,12,12,09,52,5.40
2018,12,12,09,53,5.40
2018,12,12,09,54,5.40
2018,12,12,09,55,5.40
2018,12,12,09,56,5.30
2018,12,12,09,57,5.30
2018,12,12,09,58,5.30
2018,12,12,09,59,5.30
2018,12,12,10,00,5.20
2018,12,12,10,01,5.20
2018,12,12,10,02,5.20
2018,12,12,10,03,5.20
2018,12,12,10,04,5.30
2018,12,12,10,05,5.30
2018,12,12,10,06,5.30
2018,12,12,10,07,5.40
2018,12,12,10,08,5.30
2018,12,12,10,09,5.30
2018,12,12,10,10,5.30
2018,12,12,10,11,5.30
2018,12,12,10,12,5.30
2018,12,12,10,13,5.30
2018,12,12,10,14,5.20
2018,12,12,10,15,5.30
2018,12,12,10,16,5.30
2018,12,12,10,17,5.30
2018,12,12,10,18,5.40
2018,12,12,10,19,5.40
2018,12,12,10,20,5.50
2018,12,12,10,21,5.50
2018,12,12,10,22,5.50
2018,12,12,10,23,5.50
2018,12,12,10,24,5.50
2018,12,12,10,25,5.50
2018,12,12,10,26,5.50
2018,12,12,10,27,5.60
2018,12,12,10,28,5.60
2018,12,12,10,29,5.60
2018,12,12,10,30,5.60
2018,12,12,10,31,5.60
2018,12,12,10,32,5.60
2018,12,12,10,33,5.70
2018,12,12,10,34,5.70
2018,12,12,10,35,5.80
2018,12,12,10,36,5.80
2018,12,12,10,37,5.90
2018,12,12,10,38,6.00
2018,12,12,10,39,6.00
2018,12,12,10,40,6.10
2018,12,12,10,41,6.20
2018,12,12,10,42,6.20
2018,12,12,10,43,6.30
2018,12,12,10,44,6.40
2018,12,12,10,45,6.50
2018,12,12,10,46,6.50
2018,12,12,10,47,6.60
2018,12,12,10,48,6.70
2018,12,12,10,49,6.70
2018,12,12,10,50,6.80
2018,12,12,10,51,6.90
2018,12,12,10,52,6.90
2018,12,12,10,53,6.90
2018,12,12,10,54,7.00
2018,12,12,10,55,7.00
2018,12,12,10,56,7.10
2018,12,12,10,57,7.10
2018,12,12,10,58,7.20
2018,12,12,10,59,7.20
2018,12,12,11,00,7.20
2018,12,12,11,01,7.30
2018,12,12,11,02,7.30
2018,12,12,11,03,7.40
2018,12,12,11,04,7.40
2018,12,12,11,05,7.50
2018,12,12,11,06,7.50
2018,12,12,11,07,7.60
2018,12,12,11,08,7.70
2018,12,12,11,09,7.70
2018,12,12,11,10,7.80
2018,12,12,11,11,7.90
2018,12,12,11,12,8.00
2018,12,12,11,13,8.00
2018,12,12,11,14,8.10
2018,12,12,11,15,8.10
2018,12,12,11,16,8.10
2018,12,12,11,17,8.20
2018,12,12,11,18,8.20
2018,12,12,11,19,8.10
2018,12,12,11,20,8.10
2018,12,12,11,21,8.10
2018,12,12,11,22,8.00
2018,12,12,11,23,8.00
2018,12,12,11,24,8.00
2018,12,12,11,25,8.00
2018,12,12,11,26,8.00
2018,12,12,11,27,8.00
2018,12,12,11,28,8.00
2018,12,12,11,29,8.10
2018,12,12,11,30,8.10
2018,12,12,11,31,8.20
2018,12,12,11,32,8.20
2018,12,12,11,33,8.30
2018,12,12,11,34,8.40
2018,12,12,11,35,8.50
2018,12,12,11,36,8.60
2018,12,12,11,37,8.70
2018,12,12,11,38,8.80
2018,12,12,11,39,8.80
2018,12,12,11,40,8.90
2018,12,12,11,41,8.90
2018,12,12,11,42,8.90
2018,12,12,11,43,9.00
2018,12,12,11,44,9.00
2018,12,12,11,45,9.00
2018,12,12,11,46,9.00
2018,12,12,11,47,9.00
2018,12,12,11,48,9.10
2018,12,12,11,49,9.10
2018,12,12,11,50,9.10
2018,12,12,11,51,9.20
2018,12,12,11,52,9.20
2018,12,12,11,53,9.20
2018,12,12,11,54,9.20
2018,12,12,11,55,9.20
2018,12,12,11,56,9.10
2018,12,12,11,57,9.10
2018,12,12,11,58,9.10
2018,12,12,11,59,9.10
2018,12,12,12,00,9.10
2018,12,12,12,01,9.00
2018,12,12,12,02,9.00
2018,12,12,12,03,9.00
2018,12,12,12,04,8.90
2018,12,12,12,05,8.90
2018,12,12,12,06,8.90
2018,12,12,12,07,8.90
2018,12,12,12,08,8.90
2018,12,12,12,09,8.80
2018,12,12,12,10,8.80
2018,12,12,12,11,8.80
2018,12,12,12,12,8.80
2018,12,12,12,13,8.80
2018,12,12,12,14,8.80
2018,12,12,12,15,8.80
2018,12,12,12,16,8.80
2018,12,12,12,17,8.70
2018,12,12,12,18,8.70
2018,12,12,12,19,8.70
2018,12,12,12,20,8.60
2018,12,12,12,21,8.60
2018,12,12,12,22,8.50
2018,12,12,12,23,8.50
2018,12,12,12,24,8.50
2018,12,12,12,25,8.40
2018,12,12,12,26,8.40
2018,12,12,12,27,8.40
2018,12,12,12,28,8.30
2018,12,12,12,29,8.30
2018,12,12,12,30,8.20
2018,12,12,12,31,8.20
2018,12,12,12,32,8.20
2018,12,12,12,33,8.10
2018,12,12,12,34,8.00
2018,12,12,12,35,8.00
2018,12,12,12,36,8.00
2018,12,12,12,37,7.90
2018,12,12,12,38,7.90
2018,12,12,12,39,7.90
2018,12,12,12,40,7.90
2018,12,12,12,41,7.80
2018,12,12,12,42,7.80
2018,12,12,12,43,7.80
2018,12,12,12,44,7.80
2018,12,12,12,45,7.80
2018,12,12,12,46,7.80
2018,12,12,12,47,7.70
2018,12,12,12,48,7.70
2018,12,12,12,49,7.70
2018,12,12,12,50,7.70
2018,12,12,12,51,7.70
2018,12,12,12,52,7.70
2018,12,12,12,53,7.70
2018,12,12,12,54,7.70
2018,12,12,12,55,7.70
2018,12,12,12,56,7.70
2018,12,12,12,57,7.70
2018,12,12,12,58,7.70
2018,12,12,12,59,7.70
2018,12,12,13,00,7.60
2018,12,12,13,01,7.60
2018,12,12,13,02,7.60
2018,12,12,13,03,7.70
2018,12,12,13,04,7.70
2018,12,12,13,05,7.70
2018,12,12,13,06,7.70
2018,12,12,13,07,7.70
2018,12,12,13,08,7.70
2018,12,12,13,09,7.80
2018,12,12,13,10,7.80
2018,12,12,13,11,7.80
2018,12,12,13,12,7.80
2018,12,12,13,13,7.80
2018,12,12,13,14,7.80
2018,12,12,13,15,7.80
2018,12,12,13,16,7.80
2018,12,12,13,17,7.90
2018,12,12,13,18,7.90
2018,12,12,13,19,7.90
2018,12,12,13,20,7.90
2018,12,12,13,21,7.90
2018,12,12,13,22,7.90
2018,12,12,13,23,7.90
2018,12,12,13,24,7.90
2018,12,12,13,25,7.90
2018,12,12,13,26,7.90
2018,12,12,13,27,7.90
2018,12,12,13,28,7.90
2018,12,12,13,29,7.90
2018,12,12,13,30,7.90
2018,12,12,13,31,7.90
2018,12,12,13,32,7.90
2018,12,12,13,33,7.90
2018,12,12,13,34,7.90
2018,12,12,13,35,7.90
2018,12,12,13,36,7.90
2018,12,12,13,37,7.90
2018,12,12,13,38,7.90
2018,12,12,13,39,7.90
2018,12,12,13,40,7.90
2018,12,12,13,41,7.90
2018,12,12,13,42,7.90
2018,12,12,13,43,7.90
2018,12,12,13,44,7.90
2018,12,12,13,45,7.90
2018,12,12,13,46,7.90
2018,12,12,13,47,7.90
2018,12,12,13,48,7.90
2018,12,12,13,49,7.90
2018,12,12,13,50,7.90
2018,12,12,13,51,7.90
2018,12,12,13,52,7.90
2018,12,12,13,53,7.90
2018,12,12,13,54,8.00
2018,12,12,13,55,8.00
2018,12,12,13,56,8.00
2018,12,12,13,57,8.00
2018,12,12,13,58,8.00
2018,12,12,13,59,8.00
2018,12,12,14,00,8.00
2018,12,12,14,01,8.00
2018,12,12,14,02,8.00
2018,12,12,14,03,8.00
2018,12,12,14,04,8.00
2018,12,12,14,05,8.00
2018,12,12,14,06,7.90
2018,12,12,14,07,7.90
2018,12,12,14,08,7.90
2018,12,12,14,09,7.90
2018,12,12,14,10,7.90
2018,12,12,14,11,7.90
2018,12,12,14,12,7.90
2018,12,12,14,13,7.90
2018,12,12,14,14,7.90
2018,12,12,14,15,7.80
2018,12,12,14,16,7.80
2018,12,12,14,17,7.80
2018,12,12,14,18,7.80
2018,12,12,14,19,7.80
2018,12,12,14,20,7.70
2018,12,12,14,21,7.70
2018,12,12,14,22,7.70
2018,12,12,14,23,7.70
2018,12,12,14,24,7.70
2018,12,12,14,25,7.60
2018,12,12,14,26,7.60
2018,12,12,14,27,7.60
2018,12,12,14,28,7.60
2018,12,12,14,29,7.60
2018,12,12,14,30,7.60
2018,12,12,14,31,7.50
2018,12,12,14,32,7.50
2018,12,12,14,33,7.50
2018,12,12,14,34,7.40
2018,12,12,14,35,7.40
2018,12,12,14,36,7.40
2018,12,12,14,37,7.40
2018,12,12,14,38,7.40
2018,12,12,14,39,7.40
2018,12,12,14,40,7.40
2018,12,12,14,41,7.40
2018,12,12,14,42,7.40
2018,12,12,14,43,7.40
2018,12,12,14,44,7.40
2018,12,12,14,45,7.40
2018,12,12,14,46,7.40
2018,12,12,14,47,7.40
2018,12,12,14,48,7.40
2018,12,12,14,49,7.50
2018,12,12,14,50,7.50
2018,12,12,14,51,7.50
2018,12,12,14,52,7.50
2018,12,12,14,53,7.40
2018,12,12,14,54,7.50
2018,12,12,14,55,7.50
2018,12,12,14,56,7.50
2018,12,12,14,57,7.50
2018,12,12,14,58,7.50
2018,12,12,14,59,7.50
2018,12,12,15,00,7.50
2018,12,12,15,01,7.40
2018,12,12,15,02,7.40
2018,12,12,15,03,7.40
2018,12,12,15,04,7.40
2018,12,12,15,05,7.40
2018,12,12,15,06,7.40
2018,12,12,15,07,7.40
2018,12,12,15,08,7.40
2018,12,12,15,09,7.40
2018,12,12,15,10,7.40
2018,12,12,15,11,7.40
2018,12,12,15,12,7.40
2018,12,12,15,13,7.40
2018,12,12,15,14,7.40
2018,12,12,15,15,7.40
2018,12,12,15,16,7.40
2018,12,12,15,17,7.40
2018,12,12,15,18,7.40
2018,12,12,15,19,7.40
2018,12,12,15,20,7.40
2018,12,12,15,21,7.40
2018,12,12,15,22,7.40
2018,12,12,15,23,7.30
2018,12,12,15,24,7.30
2018,12,12,15,25,7.30
2018,12,12,15,26,7.30
2018,12,12,15,27,7.30
2018,12,12,15,28,7.30
2018,12,12,15,29,7.30
2018,12,12,15,30,7.30
2018,12,12,15,31,7.30
2018,12,12,15,32,7.30
2018,12,12,15,33,7.30
2018,12,12,15,34,7.30
2018,12,12,15,35,7.20
2018,12,12,15,36,7.20
2018,12,12,15,37,7.20
2018,12,12,15,38,7.20
2018,12,12,15,39,7.20
2018,12,12,15,40,7.20
2018,12,12,15,41,7.20
2018,12,12,15,42,7.20
2018,12,12,15,43,7.20
2018,12,12,15,44,7.20
2018,12,12,15,45,7.20
2018,12,12,15,46,7.20
2018,12,12,15,47,7.20
2018,12,12,15,48,7.20
2018,12,12,15,49,7.20
2018,12,12,15,50,7.20
2018,12,12,15,51,7.20
2018,12,12,15,52,7.20
2018,12,12,15,53,7.10
2018,12,12,15,54,7.10
2018,12,12,15,55,7.10
2018,12,12,15,56,7.10
2018,12,12,15,57,7.10
2018,12,12,15,58,7.10
2018,12,12,15,59,7.10
2018,12,12,16,00,7.10
2018,12,12,16,01,7.10
2018,12,12,16,02,7.10
2018,12,12,16,03,7.10
2018,12,12,16,04,7.00
2018,12,12,16,05,7.00
2018,12,12,16,06,7.00
2018,12,12,16,07,7.00
2018,12,12,16,08,7.00
2018,12,12,16,09,7.00
2018,12,12,16,10,7.00
2018,12,12,16,11,7.00
2018,12,12,16,12,7.00
2018,12,12,16,13,7.00
2018,12,12,16,14,7.00
2018,12,12,16,15,7.00
2018,12,12,16,16,7.00
2018,12,12,16,17,7.00
2018,12,12,16,18,7.00
2018,12,12,16,19,7.00
2018,12,12,16,20,7.00
2018,12,12,16,21,7.00
2018,12,12,16,22,7.00
2018,12,12,16,23,6.90
2018,12,12,16,24,6.90
2018,12,12,16,25,6.90
2018,12,12,16,26,6.90
2018,12,12,16,27,6.90
2018,12,12,16,28,6.90
2018,12,12,16,29,6.90
2018,12,12,16,30,6.90
2018,12,12,16,31,6.90
2018,12,12,16,32,6.90
2018,12,12,16,33,6.90
2018,12,12,16,34,6.90
2018,12,12,16,35,6.90
2018,12,12,16,36,6.90
2018,12,12,16,37,6.90
2018,12,12,16,38,6.90
2018,12,12,16,39,6.90
2018,12,12,16,40,6.90
2018,12,12,16,41,6.90
2018,12,12,16,42,6.90
2018,12,12,16,43,6.90
2018,12,12,16,44,6.90
2018,12,12,16,45,6.90
2018,12,12,16,46,6.90
2018,12,12,16,47,6.90
2018,12,12,16,48,6.90
2018,12,12,16,49,6.90
2018,12,12,16,50,6.90
2018,12,12,16,51,6.90
2018,12,12,16,52,6.90
2018,12,12,16,53,6.90
2018,12,12,16,54,6.90
2018,12,12,16,55,6.90
2018,12,12,16,56,6.90
2018,12,12,16,57,6.90
2018,12,12,16,58,6.90
2018,12,12,16,59,6.90
2018,12,12,17,00,6.90
2018,12,12,17,01,6.90
2018,12,12,17,02,6.90
2018,12,12,17,03,6.90
2018,12,12,17,04,6.90
2018,12,12,17,05,6.90
2018,12,12,17,06,6.90
2018,12,12,17,07,6.90
2018,12,12,17,08,6.90
2018,12,12,17,09,6.90
2018,12,12,17,10,6.90
2018,12,12,17,11,6.90
2018,12,12,17,12,6.90
2018,12,12,17,13,6.90
2018,12,12,17,14,6.90
2018,12,12,17,15,6.90
2018,12,12,17,16,6.90
2018,12,12,17,17,6.90
2018,12,12,17,18,6.90
2018,12,12,17,19,6.80
2018,12,12,17,20,6.80
2018,12,12,17,21,6.80
2018,12,12,17,22,6.80
2018,12,12,17,23,6.80
2018,12,12,17,24,6.80
2018,12,12,17,25,6.80
2018,12,12,17,26,6.80
2018,12,12,17,27,6.80
2018,12,12,17,28,6.80
2018,12,12,17,29,6.80
2018,12,12,17,30,6.80
2018,12,12,17,31,6.80
2018,12,12,17,32,6.80
2018,12,12,17,33,6.80
2018,12,12,17,34,6.80
2018,12,12,17,35,6.80
2018,12,12,17,36,6.80
2018,12,12,17,37,6.80
2018,12,12,17,38,6.80
2018,12,12,17,39,6.80
2018,12,12,17,40,6.80
2018,12,12,17,41,6.80
2018,12,12,17,42,6.80
2018,12,12,17,43,6.70
2018,12,12,17,44,6.70
2018,12,12,17,45,6.70
2018,12,12,17,46,6.70
2018,12,12,17,47,6.70
2018,12,12,17,48,6.70
2018,12,12,17,49,6.70
2018,12,12,17,50,6.70
2018,12,12,17,51,6.70
2018,12,12,17,52,6.70
2018,12,12,17,53,6.70
2018,12,12,17,54,6.70
2018,12,12,17,55,6.70
2018,12,12,17,56,6.70
2018,12,12,17,57,6.80
2018,12,12,17,58,6.80
2018,12,12,17,59,6.80
2018,12,12,18,00,6.80
2018,12,12,18,01,6.80
2018,12,12,18,02,6.80
2018,12,12,18,03,6.80
2018,12,12,18,04,6.80
2018,12,12,18,05,6.80
2018,12,12,18,06,6.80